Van, Turkey

9:10 PM +03 on May 26, 2017 (GMT +0300)
Van

Weather History for LTCI - January, 2013

Change the Weather History Date:

Thursday, January 3, 2013

  Actual Average Record
Temperature  
Mean Temperature 26 °F -  
Max Temperature 35 °F 34 °F 44 °F (2002)
Min Temperature 16 °F 17 °F 3 °F (2009)
Degree Days  
Heating Degree Days 40    
Moisture  
Dew Point 18 °F    
Average Humidity 77    
Maximum Humidity 93    
Minimum Humidity 54    
Precipitation  
Precipitation 0.00 in 0.05 in - ()
Sea Level Pressure  
Sea Level Pressure 30.26 in    
Wind  
Wind Speed 4 mph ()    
Max Wind Speed 7 mph    
Max Gust Speed -    
Visibility 4.8 miles    
Events      
Averages and records for this station are not official NWS values.
T = Trace of Precipitation, MM = Missing Value Source: Averaged Metar Reports

Daily Weather History Graph

Daily Weather History Graph

Search for Another Location

Airport or City:

Trip Planner

Search our weather history database for the weather conditions in past years. The results will help you decide how hot, cold, wet, or windy it might be!

Date:

Astronomy

Jan. 03, 2013 Rise Set
Actual Time 6:24 AM EET 3:58 PM EET
Civil Twilight 5:54 AM EET 4:27 PM EET
Nautical Twilight 5:21 AM EET 5:01 PM EET
Astronomical Twilight 4:49 AM EET 5:33 PM EET
Moon 10:05 PM EET (1/3) 9:29 AM EET (1/3)
Length of Visible Light 10h 33m
Length of Day
9h 34m
Waning Gibbous, 68% of the Moon is Illuminated
Jan 3
Waning Gibbous
Jan 5
Last Quarter
Jan 11
New
Jan 19
First Quarter
Jan 27
Full

Hourly Weather History & Observations

Time (EET) Temp. Windchill Dew Point Humidity Pressure Visibility Wind Dir Wind Speed Gust Speed Precip Events Conditions
12:50 AM 19.4 °F 10.4 °F 14.0 °F 80% 30.30 in - ENE 6.9 mph - N/A   Clear
1:50 AM 19.4 °F 12.8 °F 15.8 °F 86% 30.30 in - ENE 4.6 mph - N/A   Clear
2:00 AM 20 °F - 16 °F 77%  in 6 mi ENE 4.6 mph - -  
2:50 AM 19.4 °F 11.5 °F 14.0 °F 80% 30.30 in - ENE 5.8 mph - N/A   Clear
3:50 AM 19.4 °F 11.5 °F 14.0 °F 80% 30.27 in - ENE 5.8 mph - N/A   Clear
4:50 AM 17.6 °F 10.7 °F 14.0 °F 86% 30.27 in - ENE 4.6 mph - N/A   Clear
5:50 AM 17.6 °F 9.3 °F 14.0 °F 86% 30.30 in - ENE 5.8 mph - N/A   Clear
6:50 AM 19.4 °F 14.3 °F 15.8 °F 86% 30.30 in 6.2 mi East 3.5 mph - N/A   Partly Cloudy
7:50 AM 24.8 °F 17.9 °F 17.6 °F 74% 30.30 in 3.7 mi ENE 5.8 mph - N/A   Partly Cloudy
8:00 AM 24 °F - 18 °F 70%  in 4 mi ENE 5.8 mph - -   Mist
8:50 AM 30.2 °F 25.4 °F 21.2 °F 69% 30.30 in 3.7 mi ENE 4.6 mph - N/A   Partly Cloudy
9:50 AM 32.0 °F - 21.2 °F 64% 30.30 in 5.0 mi Variable 2.3 mph - N/A   Unknown
10:50 AM 33.8 °F 29.6 °F 21.2 °F 60% 30.27 in 5.0 mi West 4.6 mph - N/A   Unknown
11:50 AM 33.8 °F 28.6 °F 23.0 °F 65% 30.27 in 5.0 mi WNW 5.8 mph - N/A   Unknown
12:50 PM 33.8 °F 28.6 °F 24.8 °F 70% 30.24 in 5.0 mi NW 5.8 mph - N/A   Unknown
1:50 PM 33.8 °F 29.6 °F 23.0 °F 65% 30.24 in 5.0 mi WNW 4.6 mph - N/A   Unknown
2:00 PM 34 °F - 24 °F 54%  in 5 mi WNW 4.6 mph - -   Haze
2:50 PM 33.8 °F 30.8 °F 23.0 °F 65% 30.24 in 5.0 mi West 3.5 mph - N/A   Unknown
3:50 PM 30.2 °F - 23.0 °F 75% 30.24 in 5.0 mi SE 1.2 mph - N/A   Unknown
4:50 PM 26.6 °F - 23.0 °F 86% 30.24 in 5.0 mi East 1.2 mph - N/A   Unknown
5:50 PM 23.0 °F 17.0 °F 19.4 °F 86% 30.24 in 5.0 mi ENE 4.6 mph - N/A   Unknown
6:50 PM 21.2 °F 16.4 °F 19.4 °F 93% 30.24 in 5.0 mi ENE 3.5 mph - N/A   Unknown
7:50 PM 19.4 °F 12.8 °F 15.8 °F 86% 30.24 in 5.0 mi ENE 4.6 mph - N/A   Unknown
8:00 PM 20 °F - 18 °F 87%  in 5 mi ENE 4.6 mph - -   Mist
8:50 PM 21.2 °F 13.6 °F 15.8 °F 80% 30.24 in 3.7 mi ENE 5.8 mph - N/A   Unknown
9:50 PM 19.4 °F 14.3 °F 15.8 °F 86% 30.24 in 3.7 mi ENE 3.5 mph - N/A   Unknown
10:50 PM 19.4 °F 12.8 °F 14.0 °F 80% 30.21 in 4.3 mi ENE 4.6 mph - N/A   Unknown
11:50 PM 19.4 °F - 15.8 °F 86% 30.21 in - East 1.2 mph - N/A   Clear